Find Kosmos-800

NORAD ID: 8645 Int'l Des: 1976-011 Owner: VMF Country: SU operational
LEOCIRCULARPOLAR

リアルタイム位置

3D地球を読み込み中...

Kosmos-800について

説明を読み込み中...

次回通過

Passes for default location (London). Set your location on the main map for personalized predictions.

高度履歴

Loading altitude history...

軌道要素

1 08645U 76011A 26135.11016082 .00000047 00000-0 34221-4 0 9991
2 08645 82.9704 140.9126 0022778 73.7779 350.9122 13.72199376516859
Epoch: May 15, 2026 • Age: 21 hours

現在のステータス

高度 988.3 km
速度 7.37 km/s
衛星直下点 78.29°N, 52.97°W
タイプ other

Most Searched